User: anonymous   Login
Location: Unspecified
(0.0000°N, 0.0000°E)
Time: 17:41:41
(UTC+00:00)
Language:

Tiangong 1 - Orbit

View from above orbital plane
View from above orbital plane
View from above satellite
View from above satellite

Ground track
Ground track

The orbit data is extracted from the following two-line orbital elements,

1 37820U 11053A   16338.40172258  .00021472  00000-0  17720-3 0  9996
2 37820  42.7628 310.5800 0015646 141.7213 350.7553 15.69731878297112
Epoch (UTC): 03 December 2016 09:38:28
Eccentricity: 0.0015646
inclination: 42.7628°
perigee height: 349 km
apogee height: 370 km
right ascension of ascending node: 310.5800°
argument of perigee: 141.7213°
revolutions per day: 15.69731878
mean anomaly at epoch: 350.7553°
orbit number at epoch: 29711

The dashed part of the orbit path shows where the satellite is in the earth's shadow,  

DLR